TimeCDT,TemperatureF,Dew PointF,Humidity,Sea Level PressureIn,VisibilityMPH,Wind Direction,Wind SpeedMPH,Gust SpeedMPH,PrecipitationIn,Events,Conditions,WindDirDegrees,DateUTC
12:15 AM,60.1,48.6,66,29.92,10.0,SSE,9.2,16.1,N/A,,Clear,160,2013-10-12 05:15:00
12:35 AM,60.1,48.6,66,29.92,10.0,SSE,8.1,-,N/A,,Clear,160,2013-10-12 05:35:00
12:55 AM,60.6,48.9,65,29.92,10.0,SSE,8.1,-,N/A,,Clear,160,2013-10-12 05:55:00
1:15 AM,61.5,49.1,64,29.92,10.0,South,9.2,-,N/A,,Clear,170,2013-10-12 06:15:00
1:35 AM,61.7,49.3,64,29.91,10.0,South,9.2,-,N/A,,Scattered Clouds,170,2013-10-12 06:35:00
1:55 AM,61.7,49.5,64,29.91,10.0,South,6.9,-,N/A,,Scattered Clouds,170,2013-10-12 06:55:00
2:15 AM,61.9,49.6,64,29.91,10.0,SSE,6.9,-,N/A,,Mostly Cloudy,160,2013-10-12 07:15:00
2:35 AM,61.9,50.0,65,29.91,10.0,SSE,9.2,-,N/A,,Overcast,160,2013-10-12 07:35:00
2:55 AM,61.7,50.4,66,29.91,10.0,South,8.1,-,N/A,,Mostly Cloudy,170,2013-10-12 07:55:00
3:15 AM,62.1,50.9,67,29.90,10.0,South,5.8,-,N/A,,Overcast,170,2013-10-12 08:15:00
3:35 AM,62.4,51.1,66,29.89,10.0,SSE,5.8,-,N/A,,Overcast,160,2013-10-12 08:35:00
3:55 AM,62.6,51.4,67,29.89,10.0,South,6.9,-,N/A,,Mostly Cloudy,170,2013-10-12 08:55:00
4:15 AM,62.6,51.8,68,29.89,10.0,SSE,6.9,-,N/A,,Overcast,160,2013-10-12 09:15:00
4:35 AM,63.1,52.3,68,29.89,10.0,SSE,5.8,-,N/A,,Mostly Cloudy,160,2013-10-12 09:35:00
4:55 AM,62.8,52.7,70,29.88,10.0,South,6.9,-,N/A,,Scattered Clouds,170,2013-10-12 09:55:00
5:15 AM,63.3,52.9,69,29.88,10.0,South,6.9,-,N/A,,Mostly Cloudy,170,2013-10-12 10:15:00
5:35 AM,63.7,53.2,69,29.88,10.0,South,4.6,-,N/A,,Overcast,170,2013-10-12 10:35:00
5:55 AM,63.7,53.6,70,29.88,10.0,South,4.6,-,N/A,,Overcast,170,2013-10-12 10:55:00
6:15 AM,63.5,53.6,70,29.87,10.0,SSE,6.9,-,N/A,,Overcast,160,2013-10-12 11:15:00
6:35 AM,64.0,53.8,69,29.88,10.0,South,6.9,-,N/A,,Overcast,170,2013-10-12 11:35:00
6:55 AM,63.9,54.1,71,29.89,10.0,SSE,8.1,-,N/A,Thunderstorm,Thunderstorm,150,2013-10-12 11:55:00
7:15 AM,62.2,56.3,81,29.89,7.0,SSE,9.2,-,0.01,Rain-Thunderstorm,Rain,160,2013-10-12 12:15:00
7:35 AM,61.0,57.2,87,29.88,10.0,South,6.9,-,0.01,Thunderstorm,Unknown,170,2013-10-12 12:35:00
7:55 AM,60.8,57.6,89,29.88,7.0,South,6.9,-,0.01,,Mostly Cloudy,170,2013-10-12 12:55:00
8:15 AM,61.3,58.3,90,29.90,7.0,South,5.8,-,N/A,,Overcast,190,2013-10-12 13:15:00
8:35 AM,61.7,58.5,89,29.89,7.0,SSE,8.1,-,N/A,,Overcast,160,2013-10-12 13:35:00
8:55 AM,61.7,58.6,90,29.89,7.0,South,6.9,-,N/A,Thunderstorm,Overcast,170,2013-10-12 13:55:00
9:15 AM,62.6,58.8,87,29.90,10.0,South,6.9,-,N/A,,Overcast,180,2013-10-12 14:15:00
9:35 AM,63.3,58.8,85,29.89,10.0,South,9.2,-,N/A,Thunderstorm,Thunderstorm,170,2013-10-12 14:35:00
9:55 AM,63.5,58.5,84,29.90,10.0,South,6.9,-,N/A,,Overcast,190,2013-10-12 14:55:00
10:15 AM,64.4,58.3,80,29.90,10.0,South,5.8,-,N/A,,Overcast,180,2013-10-12 15:15:00
10:35 AM,65.3,58.5,78,29.90,10.0,South,5.8,-,N/A,Thunderstorm,Mostly Cloudy,170,2013-10-12 15:35:00
10:55 AM,66.4,58.8,77,29.89,10.0,South,8.1,-,N/A,,Mostly Cloudy,190,2013-10-12 15:55:00
11:15 AM,66.9,59.2,76,29.89,10.0,South,5.8,-,N/A,,Mostly Cloudy,170,2013-10-12 16:15:00
11:35 AM,67.5,59.2,75,29.89,10.0,South,8.1,-,N/A,,Mostly Cloudy,180,2013-10-12 16:35:00
11:55 AM,66.7,59.0,76,29.89,10.0,SSW,6.9,-,N/A,,Mostly Cloudy,210,2013-10-12 16:55:00
12:15 PM,67.1,59.2,76,29.89,10.0,South,5.8,-,N/A,,Overcast,180,2013-10-12 17:15:00
12:35 PM,67.1,59.4,76,29.88,10.0,South,5.8,-,N/A,,Overcast,180,2013-10-12 17:35:00
12:55 PM,67.3,59.5,76,29.87,10.0,South,6.9,-,N/A,,Overcast,180,2013-10-12 17:55:00
1:15 PM,68.2,59.9,75,29.87,10.0,South,5.8,-,N/A,,Overcast,190,2013-10-12 18:15:00
1:35 PM,68.0,59.2,73,29.87,10.0,Calm,Calm,-,N/A,,Overcast,0,2013-10-12 18:35:00
1:55 PM,69.3,59.5,71,29.87,10.0,South,6.9,-,N/A,,Overcast,190,2013-10-12 18:55:00
2:15 PM,69.8,58.1,66,29.87,10.0,SSW,6.9,-,N/A,,Overcast,200,2013-10-12 19:15:00
2:35 PM,70.3,57.4,63,29.87,10.0,SW,11.5,17.3,N/A,,Mostly Cloudy,230,2013-10-12 19:35:00
2:55 PM,71.6,53.1,52,29.88,10.0,WSW,13.8,24.2,N/A,,Mostly Cloudy,240,2013-10-12 19:55:00
3:15 PM,71.4,47.5,42,29.88,10.0,WSW,17.3,-,N/A,,Scattered Clouds,250,2013-10-12 20:15:00
3:35 PM,71.1,44.2,38,29.88,10.0,SW,15.0,24.2,N/A,,Clear,230,2013-10-12 20:35:00
3:55 PM,70.7,45.5,40,29.89,10.0,WSW,10.4,19.6,N/A,,Clear,250,2013-10-12 20:55:00
4:15 PM,69.6,43.0,38,29.90,10.0,WSW,12.7,21.9,N/A,,Clear,250,2013-10-12 21:15:00
4:35 PM,67.8,41.0,38,29.92,10.0,West,17.3,24.2,N/A,,Clear,260,2013-10-12 21:35:00
4:55 PM,67.1,41.4,39,29.93,10.0,West,11.5,17.3,N/A,,Clear,270,2013-10-12 21:55:00
5:15 PM,66.2,41.5,41,29.94,10.0,WSW,10.4,17.3,N/A,,Clear,250,2013-10-12 22:15:00
5:35 PM,64.8,39.6,40,29.95,10.0,WSW,13.8,20.7,N/A,,Clear,250,2013-10-12 22:35:00
5:55 PM,63.7,40.3,42,29.96,10.0,WSW,15.0,20.7,N/A,,Clear,250,2013-10-12 22:55:00
6:15 PM,62.4,41.4,46,29.97,10.0,WSW,9.2,-,N/A,,Scattered Clouds,250,2013-10-12 23:15:00
6:35 PM,61.5,41.0,47,29.99,10.0,West,10.4,17.3,N/A,,Mostly Cloudy,260,2013-10-12 23:35:00
6:55 PM,61.3,39.9,45,30.00,10.0,West,13.8,19.6,N/A,,Mostly Cloudy,270,2013-10-12 23:55:00
7:15 PM,60.3,39.9,47,30.01,10.0,West,9.2,-,N/A,,Mostly Cloudy,270,2013-10-13 00:15:00
7:35 PM,59.0,40.3,50,30.03,10.0,West,5.8,-,N/A,,Scattered Clouds,260,2013-10-13 00:35:00
7:55 PM,58.6,39.7,49,30.03,10.0,West,5.8,-,N/A,,Clear,260,2013-10-13 00:55:00
8:15 PM,56.8,40.1,54,30.03,10.0,WSW,5.8,-,N/A,,Clear,240,2013-10-13 01:15:00
8:35 PM,56.5,39.9,54,30.04,10.0,WSW,6.9,-,N/A,,Clear,250,2013-10-13 01:35:00
8:55 PM,57.2,39.9,52,30.04,10.0,WSW,5.8,-,N/A,,Mostly Cloudy,240,2013-10-13 01:55:00
9:15 PM,58.1,39.9,51,30.05,10.0,WSW,13.8,17.3,N/A,,Overcast,250,2013-10-13 02:15:00
9:35 PM,57.0,37.0,47,30.07,10.0,West,19.6,25.3,N/A,,Mostly Cloudy,260,2013-10-13 02:35:00
9:55 PM,55.0,36.5,50,30.07,10.0,West,15.0,28.8,N/A,,Scattered Clouds,270,2013-10-13 02:55:00
10:15 PM,53.8,37.2,54,30.08,10.0,West,10.4,16.1,N/A,,Clear,270,2013-10-13 03:15:00
10:35 PM,52.7,37.8,57,30.08,10.0,West,11.5,-,N/A,,Clear,270,2013-10-13 03:35:00
10:55 PM,52.7,38.3,58,30.09,10.0,West,9.2,16.1,N/A,,Clear,280,2013-10-13 03:55:00
11:15 PM,52.0,38.7,60,30.10,10.0,West,8.1,17.3,N/A,,Scattered Clouds,270,2013-10-13 04:15:00
11:35 PM,51.8,38.7,61,30.10,10.0,West,5.8,17.3,N/A,,Mostly Cloudy,270,2013-10-13 04:35:00
11:55 PM,52.0,39.0,61,30.11,10.0,WSW,9.2,-,N/A,,Overcast,250,2013-10-13 04:55:00